FW1419 Weather Reports


Display with metric or nautical units.
time (UTC)temp
F
wind
direction
speed
MPH
gust
MPH
rain 1hr
in
rain 24hr
in
rain mn
in
humidity
%
barometer
mb
20260502221833 87 220 5.0 13.0 0.00 0.00 0.00 29 1010.7
20260502221326 86 198 7.0 13.0 0.00 0.00 0.00 27 1010.7
20260502220824 87 207 6.0 13.0 0.00 0.00 0.00 27 1010.9
20260502220317 87 162 8.0 12.0 0.00 0.00 0.00 28 1011.0
20260502215813 87 199 4.0 10.0 0.00 0.00 0.00 28 1011.0
20260502215327 87 215 5.0 13.0 0.00 0.00 0.00 23 1011.1
20260502214821 87 203 4.0 13.0 0.00 0.00 0.00 23 1011.0
20260502214336 87 217 4.0 12.0 0.00 0.00 0.00 24 1011.1
20260502213829 86 252 6.0 12.0 0.00 0.00 0.00 26 1011.2
20260502213325 87 238 7.0 12.0 0.00 0.00 0.00 28 1011.2
20260502212839 87 236 4.0 12.0 0.00 0.00 0.00 28 1011.3
20260502212332 86 235 6.0 12.0 0.00 0.00 0.00 29 1011.4
20260502211830 87 265 4.0 9.0 0.00 0.00 0.00 29 1011.4
20260502211323 86 207 3.0 9.0 0.00 0.00 0.00 31 1011.4
20260502210838 86 236 4.0 10.0 0.00 0.00 0.00 30 1011.4
20260502210312 85 223 4.0 11.0 0.00 0.00 0.00 32 1011.6
20260502205330 85 187 4.0 15.0 0.00 0.00 0.00 32 1011.9
20260502204823 84 220 6.0 9.0 0.00 0.00 0.00 33 1012.0
20260502204315 84 247 5.0 9.0 0.00 0.00 0.00 35 1012.0
20260502203828 84 273 3.0 8.0 0.00 0.00 0.00 36 1012.0
20260502203323 84 292 3.0 11.0 0.00 0.00 0.00 37 1012.2
20260502202819 83 240 5.0 11.0 0.00 0.00 0.00 37 1012.5
20260502202318 83 226 5.0 11.0 0.00 0.00 0.00 38 1012.1
20260502201812 83 287 6.0 11.0 0.00 0.00 0.00 39 1012.3
20260502201347 83 255 3.0 9.0 0.00 0.00 0.00 39 1012.4
20260502200820 82 138 3.0 11.0 0.00 0.00 0.00 40 1012.5
20260502200335 82 206 6.0 12.0 0.00 0.00 0.00 39 1012.5
20260502195828 82 293 6.0 12.0 0.00 0.00 0.00 40 1012.6
20260502195343 82 219 3.0 9.0 0.00 0.00 0.00 41 1012.5
20260502194817 81 278 3.0 8.0 0.00 0.00 0.00 41 1012.7
20260502194311 82 162 1.0 6.0 0.00 0.00 0.00 41 1012.9
20260502193830 81 235 2.0 6.0 0.00 0.00 0.00 42 1012.9
20260502193324 80 274 3.0 6.0 0.00 0.00 0.00 42 1013.1
20260502192818 79 239 3.0 9.0 0.00 0.00 0.00 42 1013.1
20260502192313 79 300 5.0 9.0 0.00 0.00 0.00 40 1013.1
20260502191848 80 292 2.0 6.0 0.00 0.00 0.00 38 1013.1
20260502191321 80 193 1.0 7.0 0.00 0.00 0.00 41 1013.3
20260502190816 79 296 1.0 7.0 0.00 0.00 0.00 43 1013.4
20260502190331 78 193 2.0 5.0 0.00 0.00 0.00 42 1013.4
20260502185830 78 311 1.0 6.0 0.00 0.00 0.00 40 1013.5
20260502185325 78 292 2.0 6.0 0.00 0.00 0.00 38 1013.5
20260502184819 78 224 2.0 6.0 0.00 0.00 0.00 38 1013.7
20260502184313 77 243 2.0 5.0 0.00 0.00 0.00 40 1013.8
20260502183828 77 145 1.0 7.0 0.00 0.00 0.00 38 1013.9
20260502183321 76 217 3.0 7.0 0.00 0.00 0.00 40 1014.0
20260502182817 75 280 2.0 6.0 0.00 0.00 0.00 40 1014.1
20260502182333 75 189 2.0 9.0 0.00 0.00 0.00 41 1014.2
20260502181826 75 244 3.0 9.0 0.00 0.00 0.00 42 1014.1
20260502181324 74 274 0.0 7.0 0.00 0.00 0.00 45 1014.2
20260502180818 73 230 4.0 7.0 0.00 0.00 0.00 45 1014.4
20260502180313 73 280 1.0 4.0 0.00 0.00 0.00 49 1014.3
20260502170328 67 252 3.0 7.0 0.00 0.00 0.00 65 1014.5
20260502164325 66 276 0.0 2.0 0.00 0.00 0.00 70 1014.7
20260502163824 66 284 0.0 2.0 0.00 0.00 0.00 69 1014.7
20260502163319 65 214 0.0 1.0 0.00 0.00 0.00 75 1014.7
20260502162812 64 314 0.0 1.0 0.00 0.00 0.00 75 1014.8
20260502162327 63 262 0.0 0.0 0.00 0.00 0.00 77 1014.9
20260502161821 63 78 0.0 0.0 0.00 0.00 0.00 78 1014.8
20260502161314 62 201 0.0 1.0 0.00 0.00 0.00 81 1014.9
20260502160829 61 205 0.0 4.0 0.00 0.00 0.00 83 1015.2
20260502160323 61 254 0.0 3.0 0.00 0.00 0.00 84 1015.2
20260502152324 56 306 0.0 0.0 0.00 0.00 0.00 91 1015.2
20260502151839 56 252 0.0 0.0 0.00 0.00 0.00 91 1015.2
20260502151317 55 271 0.0 0.0 0.00 0.00 0.00 90 1015.1
20260502150812 55 267 0.0 0.0 0.00 0.00 0.00 90 1015.2
20260502150325 55 275 0.0 0.0 0.00 0.00 0.00 90 1015.2
20260502130339 49 105 0.0 0.0 0.00 0.00 0.00 83 1014.0
20260502123327 50 105 0.0 0.0 0.00 0.00 0.00 83 1013.7
20260502122825 50 105 0.0 0.0 0.00 0.00 0.00 83 1013.7
20260502122319 50 105 0.0 0.0 0.00 0.00 0.00 83 1013.5
20260502121814 50 105 0.0 0.0 0.00 0.00 0.00 82 1013.6
20260502121329 51 105 0.0 0.0 0.00 0.00 0.00 82 1013.5
20260502120823 51 105 0.0 0.0 0.00 0.00 0.00 83 1013.5
20260502120318 51 105 0.0 0.0 0.00 0.00 0.00 83 1013.5
20260502115812 51 105 0.0 0.0 0.00 0.00 0.00 84 1013.5
20260502115326 51 105 0.0 0.0 0.00 0.00 0.00 84 1013.5
20260502114819 51 105 0.0 0.0 0.00 0.00 0.00 85 1013.4
20260502114337 51 105 0.0 0.0 0.00 0.00 0.00 85 1013.4
20260502113830 51 105 0.0 0.0 0.00 0.00 0.00 85 1013.4
20260502113345 51 105 0.0 0.0 0.00 0.00 0.00 85 1013.5
20260502112820 51 105 0.0 0.0 0.00 0.00 0.00 86 1013.5
20260502112314 51 105 0.0 0.0 0.00 0.00 0.00 86 1013.4
20260502111829 51 105 0.0 0.0 0.00 0.00 0.00 86 1013.4
20260502111323 51 105 0.0 0.0 0.00 0.00 0.00 86 1013.4
20260502110819 51 105 0.0 0.0 0.00 0.00 0.00 86 1013.4
20260502110334 52 105 0.0 0.0 0.00 0.00 0.00 86 1013.4
20260502105812 52 105 0.0 0.0 0.00 0.00 0.00 85 1013.3
20260502105327 52 105 0.0 0.0 0.00 0.00 0.00 86 1013.2
20260502104822 52 105 0.0 0.0 0.00 0.00 0.00 86 1013.3
20260502104317 52 105 0.0 0.0 0.00 0.00 0.00 86 1013.3
20260502103852 52 105 0.0 0.0 0.00 0.00 0.00 86 1013.2
20260502103325 52 105 0.0 0.0 0.00 0.00 0.00 86 1013.2
20260502102819 52 105 0.0 0.0 0.00 0.00 0.00 86 1013.3
20260502102314 52 105 0.0 0.0 0.00 0.00 0.00 86 1013.3
20260502101814 53 105 0.0 0.0 0.00 0.00 0.00 86 1013.2
20260502101328 53 105 0.0 0.0 0.00 0.00 0.00 86 1013.2
20260502100820 53 105 0.0 0.0 0.00 0.00 0.00 86 1013.2
20260502100315 53 105 0.0 0.0 0.00 0.00 0.00 86 1013.2
20260502091343 55 105 0.0 0.0 0.00 0.00 0.00 83 1013.8
20260502090817 55 105 0.0 0.0 0.00 0.00 0.00 82 1013.8
20260502090311 55 105 0.0 0.0 0.00 0.00 0.00 82 1014.0
20260502071321 58 269 0.0 0.0 0.00 0.00 0.00 82 1014.4
20260502070836 58 269 0.0 0.0 0.00 0.00 0.00 81 1014.4
20260502070329 58 269 0.0 0.0 0.00 0.00 0.00 81 1014.5
20260502065824 58 269 0.0 0.0 0.00 0.00 0.00 80 1014.4
20260502065319 59 269 0.0 0.0 0.00 0.00 0.00 80 1014.4
20260502064814 59 269 0.0 0.0 0.00 0.00 0.00 80 1014.5
20260502064329 59 269 0.0 0.0 0.00 0.00 0.00 80 1014.4
20260502063823 60 269 0.0 0.0 0.00 0.00 0.00 80 1014.5
20260502063323 60 269 0.0 0.0 0.00 0.00 0.00 80 1014.5
20260502062818 60 269 0.0 0.0 0.00 0.00 0.00 80 1014.5
20260502062313 60 269 0.0 0.0 0.00 0.00 0.00 79 1014.5
20260502061827 60 269 0.0 0.0 0.00 0.00 0.00 78 1014.5
20260502061342 61 269 0.0 0.0 0.00 0.00 0.00 78 1014.4
20260502060816 61 269 0.0 0.0 0.00 0.00 0.00 78 1014.4
20260502060311 61 269 0.0 0.0 0.00 0.00 0.00 78 1014.5
20260502055826 61 269 0.0 0.0 0.00 0.00 0.00 77 1014.4
20260502055324 61 269 0.0 0.0 0.00 0.00 0.00 77 1014.3
20260502054839 61 269 0.0 0.0 0.00 0.00 0.00 76 1014.4
20260502054331 62 269 0.0 0.0 0.00 0.00 0.00 76 1014.5
20260502053825 62 269 0.0 0.0 0.00 0.00 0.00 76 1014.5
20260502053318 62 269 0.0 0.0 0.00 0.00 0.00 75 1014.5
20260502052813 62 269 0.0 0.0 0.00 0.00 0.00 75 1014.5
20260502052329 62 269 0.0 0.0 0.00 0.00 0.00 75 1014.5
20260502051823 63 269 0.0 0.0 0.00 0.00 0.00 74 1014.5
20260502051322 63 269 0.0 0.0 0.00 0.00 0.00 73 1014.5
20260502050816 63 269 0.0 0.0 0.00 0.00 0.00 73 1014.5
20260502050311 64 269 0.0 0.0 0.00 0.00 0.00 72 1014.5
20260502045825 64 269 0.0 0.0 0.00 0.00 0.00 71 1014.5
20260502045321 64 269 0.0 0.0 0.00 0.00 0.00 71 1014.5
20260502044815 65 269 0.0 1.0 0.00 0.00 0.00 70 1014.4
20260502044330 65 269 0.0 1.0 0.00 0.00 0.00 70 1014.4
20260502043846 65 263 0.0 0.0 0.00 0.00 0.00 69 1014.3
20260502043340 66 263 0.0 0.0 0.00 0.00 0.00 69 1014.3
20260502042817 66 263 0.0 0.0 0.00 0.00 0.00 68 1014.2
20260502042312 66 263 0.0 0.0 0.00 0.00 0.00 67 1014.0
20260502041827 67 312 0.0 0.0 0.00 0.00 0.00 66 1014.1
20260502041321 67 312 0.0 2.0 0.00 0.00 0.00 65 1014.0
20260502040815 67 312 1.0 2.0 0.00 0.00 0.00 65 1014.0
20260502040311 68 315 0.0 0.0 0.00 0.00 0.00 65 1013.9
20260502035826 68 315 0.0 3.0 0.00 0.00 0.00 64 1013.8
20260502035325 68 315 0.0 3.0 0.00 0.00 0.00 64 1013.7
20260502034819 69 304 1.0 2.0 0.00 0.00 0.00 64 1013.6
20260502034334 69 310 0.0 2.0 0.00 0.00 0.00 64 1013.5
20260502033828 69 310 0.0 3.0 0.00 0.00 0.00 63 1013.4
20260502033324 69 269 0.0 5.0 0.00 0.00 0.00 63 1013.2
20260502032837 70 273 0.0 2.0 0.00 0.00 0.00 62 1013.0
20260502032330 70 199 0.0 6.0 0.00 0.00 0.00 61 1012.9
20260502031846 71 245 1.0 6.0 0.00 0.00 0.00 60 1012.8
20260502031339 71 245 2.0 5.0 0.00 0.00 0.00 59 1012.7
20260502030812 72 269 0.0 4.0 0.00 0.00 0.00 58 1012.6
20260502030326 72 241 1.0 8.0 0.00 0.00 0.00 58 1012.6
20260502025841 72 250 3.0 8.0 0.00 0.00 0.00 57 1012.5
20260502025340 73 207 2.0 7.0 0.00 0.00 0.00 57 1012.4
20260502024813 73 209 2.0 7.0 0.00 0.00 0.00 56 1012.3
20260502024327 74 211 4.0 6.0 0.00 0.00 0.00 55 1012.2
20260502023822 74 160 2.0 8.0 0.00 0.00 0.00 54 1012.2
20260502023316 75 204 3.0 7.0 0.00 0.00 0.00 53 1012.1
20260502022829 75 233 4.0 7.0 0.00 0.00 0.00 52 1012.1
20260502022324 76 216 0.0 3.0 0.00 0.00 0.00 51 1012.1
20260502021818 76 272 1.0 6.0 0.00 0.00 0.00 50 1012.0
20260502021333 77 202 2.0 6.0 0.00 0.00 0.00 49 1011.9
20260502020811 77 273 1.0 6.0 0.00 0.00 0.00 48 1011.9
20260502020325 78 231 1.0 3.0 0.00 0.00 0.00 47 1011.8
20260502015818 78 283 1.0 5.0 0.00 0.00 0.00 47 1011.8
20260502015313 79 258 2.0 7.0 0.00 0.00 0.00 46 1011.7
20260502014826 79 218 2.0 6.0 0.00 0.00 0.00 44 1011.7
20260502014321 80 212 3.0 9.0 0.00 0.00 0.00 44 1011.7
20260502013816 80 223 1.0 7.0 0.00 0.00 0.00 43 1011.6
20260502013330 81 234 4.0 7.0 0.00 0.00 0.00 42 1011.6
20260502012823 81 288 2.0 7.0 0.00 0.00 0.00 38 1011.6
20260502012322 81 274 3.0 6.0 0.00 0.00 0.00 38 1011.5
20260502011818 82 276 3.0 7.0 0.00 0.00 0.00 32 1011.6
20260502011352 82 251 3.0 8.0 0.00 0.00 0.00 32 1011.5
20260502010823 82 262 4.0 8.0 0.00 0.00 0.00 30 1011.4
20260502010319 82 290 3.0 11.0 0.00 0.00 0.00 29 1011.3
20260502005814 82 244 5.0 13.0 0.00 0.00 0.00 31 1011.3
20260502005349 82 307 7.0 13.0 0.00 0.00 0.00 31 1011.4
20260502004822 83 281 2.0 9.0 0.00 0.00 0.00 29 1011.3
20260502004317 83 290 4.0 9.0 0.00 0.00 0.00 30 1011.3
20260502003816 83 292 4.0 9.0 0.00 0.00 0.00 29 1011.2
20260502003311 83 272 5.0 9.0 0.00 0.00 0.00 29 1011.2
20260502002847 83 130 5.0 9.0 0.00 0.00 0.00 29 1011.2
20260502002321 83 309 5.0 11.0 0.00 0.00 0.00 32 1011.1
20260502001815 83 295 7.0 12.0 0.00 0.00 0.00 32 1011.1
20260502001311 83 307 3.0 10.0 0.00 0.00 0.00 31 1011.2
20260502000825 83 299 5.0 14.0 0.00 0.00 0.00 32 1011.1
20260502000320 83 296 9.0 14.0 0.00 0.00 0.00 32 1011.1
20260501235819 83 314 4.0 11.0 0.00 0.00 0.00 33 1011.1
20260501235313 83 305 4.0 11.0 0.00 0.00 0.00 34 1011.1
20260501234828 84 296 4.0 11.0 0.00 0.00 0.00 34 1011.1
20260501234322 84 272 4.0 10.0 0.00 0.00 0.00 34 1011.0
20260501233815 84 228 4.0 8.0 0.00 0.00 0.00 33 1011.0
20260501233329 84 300 4.0 10.0 0.00 0.00 0.00 33 1011.0
20260501232824 84 258 5.0 10.0 0.00 0.00 0.00 33 1011.0
20260501232320 84 333 4.0 11.0 0.00 0.00 0.00 33 1011.0
20260501231840 84 305 4.0 10.0 0.00 0.00 0.00 32 1010.9
20260501231314 84 312 6.0 13.0 0.00 0.00 0.00 32 1011.0
20260501230829 85 258 7.0 13.0 0.00 0.00 0.00 32 1011.1
20260501230343 85 311 7.0 14.0 0.00 0.00 0.00 31 1011.2
20260501225838 85 297 6.0 14.0 0.00 0.00 0.00 30 1011.2
20260501225352 85 281 5.0 11.0 0.00 0.00 0.00 28 1011.3
20260501224825 85 311 5.0 10.0 0.00 0.00 0.00 27 1011.3
20260501224319 85 279 4.0 11.0 0.00 0.00 0.00 30 1011.4
20260501223813 85 276 4.0 14.0 0.00 0.00 0.00 30 1011.4
20260501223328 85 295 10.0 14.0 0.00 0.00 0.00 30 1011.4
20260501222842 85 314 3.0 10.0 0.00 0.00 0.00 30 1011.5
20260501222319 85 303 5.0 11.0 0.00 0.00 0.00 30 1011.6